Lapse_Rate
5.0 3.7 3.3 3.2 4.2 5.6 6.0 6.6 6.1 6.3 6.9 5.8 4.8 4.4 4.0 4.6 7.1 7.0 6.7 7.0 7.4 7.6 7.5 7.6 7.8 8.0 8.4 8.5 8.5 8.5 8.5 8.4 8.5 8.6 8.8 8.6 8.6 8.6 8.3 8.2 8.0 8.1 8.0 8.1
5.5 4.2 3.7 3.0 3.4 3.8 5.3 6.1 5.8 5.4 6.5 6.1 4.6 4.2 4.5 5.3 7.1 6.8 6.6 7.1 6.9 7.4 7.8 7.8 7.9 8.2 8.4 8.5 8.6 8.6 8.5 8.0 8.2 8.5 8.7 8.3 8.2 8.3 8.5 8.6 8.2 8.1 7.1 7.9
5.7 5.0 4.3 3.7 3.0 3.1 3.9 4.7 4.5 5.1 5.5 6.4 5.9 5.2 4.2 5.2 7.2 6.9 6.4 6.6 7.0 7.4 7.5 8.0 8.0 8.3 8.4 8.6 8.4 8.8 8.7 8.7 8.4 8.0 8.7 9.2 8.9 8.8 8.7 8.5 8.2 8.2 8.1 8.4
5.4 5.6 4.8 3.9 3.5 3.5 4.2 3.9 4.4 5.2 4.5 5.8 5.0 5.1 4.7 5.3 6.9 6.7 6.3 6.8 7.2 7.1 7.2 8.0 8.0 8.2 8.4 8.6 8.5 8.6 8.7 8.5 8.7 8.7 8.7 8.6 8.7 8.7 8.5 8.3 8.3 8.1 8.2 8.2
5.2 5.2 5.0 4.4 3.8 4.1 4.5 4.1 4.5 4.6 5.1 6.2 5.5 4.0 4.2 3.9 6.8 6.5 6.8 6.3 7.6 7.4 7.4 8.0 8.3 8.2 8.4 8.6 8.6 8.5 8.7 8.7 8.6 8.5 8.5 8.5 8.4 8.6 8.5 8.2 8.3 8.1 8.2 8.1
5.0 4.9 4.8 4.6 4.2 4.7 4.1 4.0 4.9 4.6 4.6 5.3 4.8 5.3 5.0 4.8 6.1 7.2 7.1 7.1 8.0 7.1 7.5 8.1 8.3 8.1 8.6 8.9 9.0 8.5 8.4 8.6 8.5 8.3 8.4 8.2 7.7 8.2 8.3 8.1 8.2 8.3 8.1 8.2
5.0 4.8 4.5 4.5 4.3 5.0 4.3 4.3 4.8 4.7 4.5 4.5 5.8 4.9 4.7 4.8 6.5 6.6 7.1 7.0 7.0 7.6 7.9 8.0 8.4 8.5 8.3 8.5 8.8 8.6 8.4 8.3 8.2 8.0 8.0 5.7 7.6 7.8 7.9 8.1 7.9 8.0 8.2 8.1
4.9 4.6 4.5 4.6 4.5 4.8 5.4 4.9 5.1 5.3 4.7 4.5 5.1 4.7 5.1 4.8 6.7 6.8 6.7 7.2 7.6 8.0 7.7 7.6 8.3 8.6 8.6 8.1 8.2 8.2 8.2 8.2 7.7 7.5 7.4 7.4 7.3 7.4 7.7 7.7 7.6 7.8 7.9 8.0
4.9 4.7 4.6 4.3 4.4 5.3 5.2 5.3 5.4 5.2 5.2 4.7 5.0 4.7 5.0 4.7 6.6 6.6 6.8 7.3 7.2 7.2 7.1 7.6 8.1 7.7 7.9 7.4 7.4 7.6 7.7 7.8 7.7 7.2 7.1 5.3 7.6 7.9 7.7 7.7 7.4 7.4 7.3 7.6
5.4 4.7 4.6 4.4 4.7 5.5 5.7 5.3 5.5 5.8 5.1 5.1 5.1 4.9 5.3 5.6 6.6 6.9 7.1 7.3 7.0 7.0 7.0 7.2 7.8 8.0 8.0 7.9 7.5 7.5 7.4 7.6 7.3 7.3 7.0 7.1 7.5 7.8 7.9 7.3 7.6 7.9 7.8 7.6
5.3 5.0 4.7 4.9 5.4 5.9 6.2 5.5 5.6 5.7 5.4 5.5 5.0 5.2 5.3 6.3 6.3 6.6 6.8 6.8 7.0 6.6 6.6 7.3 7.7 7.8 7.7 7.8 7.7 7.7 7.9 7.7 7.1 7.0 6.9 6.5 7.4 7.6 7.5 8.0 8.1 8.2 8.1 7.8
5.2 5.2 5.2 5.2 5.9 6.3 6.7 6.1 5.8 5.8 5.9 5.5 5.4 5.5 5.6 6.3 6.1 6.5 7.0 6.5 6.9 7.1 7.1 7.2 7.6 7.6 7.6 7.4 7.5 7.6 7.5 7.7 7.6 7.3 7.0 7.2 7.2 7.5 7.7 7.8 7.9 7.7 7.5 7.3
4.9 5.0 5.4 5.7 6.0 6.2 6.7 6.3 5.9 5.7 5.4 6.0 5.5 6.0 6.3 6.7 6.9 6.4 6.2 6.8 7.1 7.3 7.2 7.4 7.5 7.5 7.5 7.5 7.6 7.8 7.5 7.5 7.1 7.2 7.0 7.2 7.3 7.5 7.5 7.5 7.4 7.2 7.0 6.9
5.0 5.0 5.5 5.6 5.6 6.2 6.7 6.4 5.8 5.7 6.0 6.2 6.6 6.4 6.9 6.5 6.2 6.4 6.4 7.0 7.1 7.2 7.5 7.5 7.4 7.6 7.6 7.7 8.1 8.0 7.9 7.6 7.3 7.2 7.2 7.4 7.3 7.3 7.2 7.2 7.1 7.0 6.8 6.7
5.3 5.2 5.4 5.6 5.6 6.1 6.4 6.6 5.5 5.6 5.9 6.3 6.5 6.6 6.7 6.5 6.4 6.6 6.7 6.6 6.8 7.2 7.4 7.5 7.4 7.4 7.7 7.6 7.9 7.9 8.1 7.9 7.7 7.7 7.8 7.5 7.4 7.3 7.1 7.0 6.9 6.7 6.6 6.5
6.1 5.7 5.6 5.6 5.7 6.2 6.1 5.6 5.2 5.6 5.8 5.1 5.6 6.6 6.4 6.4 6.4 6.7 6.7 6.7 6.8 7.0 7.0 7.2 7.2 7.3 7.6 7.6 7.6 7.9 8.2 8.1 7.9 7.6 7.5 7.3 7.2 7.1 7.0 6.7 6.6 6.5 6.4 6.3
6.5 6.3 6.0 5.9 6.4 6.4 5.5 4.6 5.1 5.3 5.8 5.7 5.8 6.3 6.6 6.5 6.7 6.8 6.8 6.7 6.7 6.8 7.0 6.2 7.0 7.7 7.1 6.8 7.4 8.3 8.4 8.2 8.0 7.6 7.4 7.2 7.1 7.1 6.8 6.6 6.5 6.4 6.3 6.2
7.9 7.7 7.6 7.4 7.2 6.8 5.7 6.0 6.1 6.3 6.2 5.9 5.9 6.0 6.1 6.6 6.5 6.8 6.7 6.7 6.6 6.4 6.4 6.2 6.7 7.3 6.9 6.9 7.3 8.0 8.4 8.1 8.0 7.7 7.5 7.3 7.1 7.0 6.8 6.7 6.6 6.5 6.4 6.2
7.9 7.7 7.1 6.3 5.9 5.9 6.2 7.0 6.2 6.1 5.9 6.1 5.6 5.8 6.2 6.3 6.2 6.4 6.5 6.5 6.5 6.3 6.3 6.3 6.9 7.1 7.0 7.1 7.4 8.1 8.2 7.9 7.8 7.6 7.5 7.4 7.2 7.0 6.8 6.7 6.5 6.4 6.3 6.1
6.4 6.3 6.0 5.6 5.3 5.5 6.0 6.1 6.4 6.3 6.1 5.3 5.6 6.0 6.0 6.0 6.3 5.7 6.5 6.2 6.0 5.8 6.0 6.2 6.5 6.7 7.1 7.5 7.8 8.0 7.9 7.8 7.7 7.6 7.6 7.4 7.2 7.0 6.8 6.6 6.4 6.3 6.1 5.7
6.0 6.5 6.7 6.3 5.8 5.6 5.6 5.9 5.8 6.0 5.8 5.4 5.8 6.2 6.1 6.1 6.3 6.1 6.0 5.6 5.8 6.0 5.8 6.0 6.0 6.3 7.0 7.3 7.4 7.5 7.8 7.9 7.7 7.6 7.5 7.2 6.9 6.8 6.6 6.4 6.1 5.9 5.6 5.5
5.4 6.0 5.8 5.7 5.6 5.9 6.2 6.3 6.1 5.9 6.2 6.1 6.2 5.9 6.2 5.9 6.0 5.8 5.7 5.8 6.0 6.4 6.6 6.3 6.5 7.0 7.1 7.2 7.4 7.4 7.5 7.7 7.7 7.4 7.0 6.8 6.7 6.5 6.3 6.0 5.8 5.7 5.4 5.3
6.0 5.8 5.9 6.1 5.9 6.2 6.5 6.1 6.2 6.4 6.5 6.2 6.1 6.0 5.9 5.9 5.9 5.8 6.1 6.1 6.2 6.3 6.6 6.5 7.2 7.6 7.7 7.7 7.7 7.6 7.7 7.7 7.0 6.7 6.6 6.5 6.3 6.0 5.8 5.6 5.5 5.3 5.0 4.7
6.0 6.3 6.1 6.1 6.0 6.1 6.2 6.4 6.7 6.8 6.4 6.3 6.1 6.0 5.8 5.7 5.8 6.1 6.4 6.1 6.2 6.0 6.2 6.7 7.4 7.8 7.7 7.6 7.4 7.3 6.9 6.5 6.3 6.1 6.0 5.9 5.9 5.8 5.4 5.2 4.9 4.9 4.8 4.7
6.3 6.3 6.4 5.8 5.7 6.0 6.3 6.5 6.6 6.6 6.7 6.4 5.9 5.9 6.1 6.1 6.4 6.3 6.2 6.1 5.9 5.6 5.9 6.8 7.1 7.2 7.0 6.9 6.8 7.1 6.7 5.8 5.5 5.6 5.4 5.4 5.3 5.1 5.1 5.0 4.8 4.8 4.8 4.5
6.5 5.7 6.0 6.3 6.2 6.5 6.5 6.8 6.9 6.7 6.4 6.0 6.1 6.1 5.9 5.9 5.7 5.9 5.7 5.8 5.3 5.4 6.0 6.3 6.6 6.8 6.8 6.7 6.5 6.1 5.5 5.3 5.3 5.3 5.2 4.9 4.9 4.8 4.8 4.8 4.9 4.6 4.3 4.1
5.5 5.1 5.4 5.8 5.8 6.2 6.2 5.9 6.3 6.3 6.1 6.1 6.1 6.3 5.9 5.6 5.4 5.1 5.1 5.0 5.3 5.4 5.6 6.1 6.1 6.0 5.8 5.8 5.9 5.9 5.4 5.1 5.0 4.9 4.8 4.7 4.7 4.7 4.8 4.7 4.5 4.4 4.1 4.1
Wind_Speed
37 38 37 33 28 31 20 4 5 9 14 10 4 13 5 4 15 2 4 2 5 5 7 8 9 10 10 9 10 9 7 6 5 9 3 1 3 5 5 4 4 1 4 6
38 42 39 35 33 33 9 8 5 9 14 12 16 8 15 9 8 7 6 6 5 4 4 5 6 8 6 5 9 10 8 1 2 7 4 2 4 4 4 4 3 6 5 6
34 41 38 37 37 32 8 5 7 6 12 14 20 21 14 20 13 15 2 3 3 1 4 4 8 6 4 6 7 7 7 4 8 9 9 4 3 4 4 5 3 4 6 6
37 39 38 36 36 38 9 5 8 7 14 21 17 19 15 20 16 13 6 5 7 2 2 2 4 3 2 3 6 2 6 4 4 4 4 3 4 4 7 6 6 6 8 7
35 39 37 35 37 36 11 7 5 4 4 18 24 18 21 24 23 7 12 15 4 14 9 8 7 6 4 6 2 4 3 4 3 2 3 4 4 6 6 6 3 6 5 5
39 36 37 38 35 30 8 7 3 3 11 19 19 28 23 23 19 17 15 16 12 6 12 9 14 7 4 9 10 6 5 6 4 4 2 2 5 8 8 6 5 6 6 8
38 36 33 34 36 37 7 10 1 4 9 14 24 19 20 22 25 20 16 23 11 5 4 2 5 8 9 8 6 3 7 6 3 3 3 3 7 3 4 5 2 4 5 6
36 33 35 34 36 39 13 4 3 2 4 13 14 17 23 15 19 19 19 8 18 8 2 2 3 5 4 3 7 5 3 5 3 5 4 5 3 3 7 6 2 3 7 8
32 31 30 29 31 35 16 2 3 1 2 11 8 18 18 14 16 10 14 9 5 4 3 3 6 5 5 4 3 5 6 6 5 3 5 7 8 4 5 6 2 5 5 7
31 29 28 29 31 32 13 3 3 1 2 3 12 9 15 13 8 6 5 11 3 3 3 3 4 4 6 7 10 6 3 3 6 3 3 7 7 5 5 6 7 8 7 7
27 26 26 27 30 27 16 4 6 1 1 5 4 5 4 6 12 12 4 6 2 2 4 4 5 3 6 4 5 7 7 7 4 3 3 6 5 4 8 6 3 7 6 5
24 23 22 23 24 25 19 4 5 3 1 3 3 9 15 10 9 8 5 4 6 6 4 2 3 2 2 4 3 2 3 7 6 8 6 3 3 4 1 4 9 5 7 6
23 23 21 22 25 25 17 3 3 2 2 6 3 7 7 8 12 8 7 2 2 3 3 4 2 3 4 4 5 4 2 3 4 4 1 1 3 3 3 4 5 7 8 14
22 21 21 21 21 26 17 7 3 2 1 1 6 5 6 5 8 10 6 7 5 4 2 3 3 2 2 3 4 5 5 7 7 3 2 3 5 3 5 9 10 14 11 9
22 21 22 23 22 20 10 4 3 5 3 1 5 12 4 5 5 11 12 8 5 3 2 2 2 3 3 2 2 2 5 7 6 5 12 5 5 7 7 10 9 10 16 12
24 22 23 23 22 24 7 2 6 2 3 1 4 4 4 3 4 7 11 9 3 3 4 3 1 3 4 2 3 2 2 3 4 6 12 6 11 7 5 11 9 11 13 13
24 21 22 25 27 7 3 4 3 16 3 2 2 4 4 3 1 2 3 3 2 2 3 1 3 3 1 4 3 4 4 7 11 15 17 9 4 6 10 13 14 14 12 11
20 19 22 22 22 5 4 3 7 13 3 2 2 4 4 3 1 3 0 2 1 3 2 2 3 2 2 3 1 5 9 13 10 5 7 11 17 15 13 13 15 15 13 12
18 20 21 8 1 3 3 11 11 2 3 3 2 2 3 3 2 2 2 2 2 1 2 0 2 0 4 1 8 11 14 6 13 13 16 17 17 16 15 15 13 16 11 10
20 9 3 3 5 15 11 5 3 2 2 2 3 2 2 3 1 3 3 3 1 2 2 2 3 2 2 4 4 7 10 15 17 19 11 13 14 14 15 14 12 13 12 11
3 3 3 6 12 3 2 3 1 2 2 2 3 4 3 2 2 3 1 3 4 4 3 3 1 3 3 3 7 9 11 10 5 10 11 8 16 17 16 14 11 11 11 10
7 4 5 2 2 3 3 3 2 2 3 2 1 1 2 1 2 3 2 3 2 3 2 4 3 2 3 6 9 10 9 10 12 14 16 15 15 14 14 13 12 11 10 9
1 4 5 1 1 3 3 3 1 1 3 3 2 1 1 2 3 3 3 4 1 1 2 2 2 1 4 7 9 10 11 13 15 15 14 15 15 13 15 13 10 12 10 8
3 3 4 3 3 3 2 2 0 1 2 1 2 2 2 2 4 1 5 2 2 3 3 4 1 3 6 8 8 13 12 12 15 15 15 15 15 13 11 11 11 11 10 9
4 4 4 4 1 1 1 2 1 2 2 2 2 3 1 3 4 3 3 3 2 2 2 0 1 4 8 10 11 12 12 11 12 13 14 14 14 13 11 9 10 10 9 8
3 7 4 4 3 5 3 6 4 4 3 1 2 3 4 4 2 3 4 2 2 3 3 2 5 8 9 11 11 11 11 12 12 11 12 13 12 11 11 10 9 7 8 8
5 4 4 3 3 4 4 4 4 4 2 2 2 5 4 2 3 3 4 3 3 3 2 3 5 8 10 10 11 11 12 12 11 11 10 10 10 11 10 11 9 9 8 6
Wind_Direction
207 196 193 185 180 188 181 168 208 166 144 194 197 220 196 242 245 192 267 273 244 240 199 176 195 203 214 175 153 157 197 145 182 213 203 108 169 171 147 130 225 152 152 267
204 192 186 181 177 192 171 181 205 177 166 198 213 204 207 235 216 213 206 237 207 10 233 188 176 200 193 170 157 162 178 203 92 338 360 254 194 179 166 113 83 191 144 257
193 181 178 182 179 194 185 186 181 170 189 219 200 199 197 207 223 251 292 288 295 257 289 233 194 201 202 154 180 152 104 135 162 199 210 179 170 205 152 132 120 191 219 254
185 176 179 184 181 191 191 205 202 190 184 210 209 189 192 198 213 200 197 258 228 172 295 301 180 160 133 5 126 42 132 157 160 219 204 212 183 185 173 187 204 165 249 210
179 173 178 186 187 179 209 197 202 171 203 198 202 198 207 200 209 178 200 233 204 217 223 233 238 152 179 192 147 137 299 158 132 124 23 359 229 233 191 217 213 256 242 249
179 179 178 186 187 175 204 211 287 212 195 186 193 212 204 203 198 223 232 211 222 197 226 222 238 219 188 179 150 157 135 131 109 215 61 359 324 228 221 218 204 183 188 217
177 175 180 189 194 183 222 184 192 238 196 185 206 192 203 203 209 211 197 233 225 244 93 82 40 57 61 58 31 136 138 110 85 173 54 295 249 290 230 182 267 248 121 122
172 178 183 193 198 186 207 226 184 235 189 198 205 201 196 198 216 222 226 237 227 170 50 27 53 358 35 23 31 18 107 116 108 141 188 294 297 202 161 164 252 318 133 129
174 178 184 191 193 187 187 264 166 302 252 206 161 183 193 194 212 223 234 229 233 112 121 124 173 180 164 184 75 40 64 67 115 142 157 208 233 238 158 118 266 205 152 159
170 177 185 190 189 186 195 247 153 155 357 321 199 181 189 198 183 221 182 189 158 88 145 159 163 222 173 160 168 175 65 29 155 136 197 287 241 212 143 154 233 164 171 162
174 182 183 174 175 179 175 235 156 159 99 293 356 2 164 181 199 204 175 122 223 74 158 177 205 139 208 112 168 174 159 147 173 87 79 275 179 123 169 206 80 131 141 133
176 179 175 165 168 175 168 227 160 160 229 299 322 268 261 238 264 191 190 213 161 177 140 178 132 126 70 149 202 147 205 182 177 178 207 231 261 251 215 154 139 147 131 126
173 173 173 166 172 169 176 170 116 122 34 299 277 273 281 213 224 229 185 284 179 163 145 154 173 143 133 155 236 110 245 155 117 112 240 345 347 32 60 84 108 107 121 136
169 168 169 169 169 174 173 180 131 94 10 268 279 263 237 230 210 206 207 165 115 97 125 138 155 139 170 210 172 161 195 136 133 92 37 67 6 52 105 92 93 93 80 112
174 170 169 171 173 171 171 169 186 178 212 271 302 293 224 275 276 214 201 136 131 144 119 119 170 146 123 69 356 211 188 161 158 207 187 160 162 150 132 117 114 114 118 109
170 163 169 168 164 165 156 141 253 220 199 262 301 296 317 286 240 171 204 178 106 132 152 199 176 111 124 156 220 261 174 159 161 175 140 96 110 99 86 115 113 109 113 119
153 164 169 163 146 139 169 182 205 167 220 196 283 279 258 249 236 58 72 55 90 112 97 180 142 110 96 124 220 188 124 104 103 117 111 81 140 150 116 113 112 106 102 106
121 122 126 129 139 132 301 270 160 142 174 270 254 262 316 20 214 126 341 105 85 29 125 27 107 78 72 217 213 119 113 109 104 36 66 114 116 114 116 120 123 114 113 116
134 126 128 119 150 177 212 130 109 122 154 200 210 224 248 59 199 84 57 68 45 281 71 196 127 145 211 195 166 162 153 148 132 104 106 117 120 127 130 128 125 120 121 116
128 137 149 161 185 127 95 8 32 64 256 246 241 304 129 317 358 57 62 21 90 74 278 181 75 276 274 279 154 109 115 124 126 112 112 120 125 136 138 136 133 127 126 120
190 156 202 98 152 81 87 186 142 201 195 202 248 213 141 342 97 130 146 146 203 127 215 109 175 269 199 135 122 126 132 131 97 97 121 128 140 142 139 131 122 120 121 121
192 117 107 82 70 72 111 202 190 188 206 282 272 14 71 100 155 109 349 102 57 132 136 101 205 270 111 121 120 120 117 113 111 123 126 131 132 133 126 123 121 118 115 116
245 45 52 73 82 162 197 157 153 118 350 328 315 19 99 18 45 76 101 86 169 56 70 207 239 107 110 117 113 100 107 112 113 114 114 114 112 115 122 117 115 121 118 118
76 101 86 57 44 47 31 345 53 219 226 261 50 47 52 328 50 36 85 50 93 78 179 242 324 120 114 112 113 114 111 113 113 113 114 114 110 104 102 117 126 123 124 128
60 25 51 65 142 109 297 262 199 327 281 33 50 65 70 18 74 34 77 55 95 140 224 235 152 116 120 120 115 113 113 116 116 120 116 113 114 113 114 113 113 113 113 115
64 37 12 343 15 10 22 17 20 2 332 272 50 73 54 38 84 53 29 62 41 358 347 337 103 105 113 110 111 114 116 116 114 113 116 119 123 127 121 113 115 114 120 123
41 19 355 353 22 9 2 341 343 319 5 50 31 47 27 6 52 56 24 26 333 318 322 38 101 115 116 112 111 111 110 108 109 112 113 115 117 116 119 126 136 133 126 112